PLATFORM,ARGOS_ID,DATE (YYYY/MM/DD HH:MI:SS),LATITUDE (degree_north),LONGITUDE (degree_east),TEMP LEVEL0 (degree_Celsius),EWCT LEVEL1 (meter/second),NSCT LEVEL1 (meter/second),QC,SVP_RCBN_Number,SVP_GNRL_ImmPercent,SVP_GNRL_BattVolt
62965,60639,2010/05/30 20:00:53,44.0646,-5.5129,16.3163,,,00111199,1,15,11.5
62965,60639,2010/05/30 21:00:21,44.0697,-5.5206,16.3163,-0.172422,0.158939,00111100,4,11,11.5
62965,60639,2010/05/30 22:00:21,44.0752,-5.5257,16.3163,-0.113176,0.169881,00111100,3,14,11.5
62965,60639,2010/05/30 23:00:23,44.0801,-5.5264,16.3163,-0.015524,0.151265,00111100,5,17,11.5
62965,60639,2010/05/31 00:00:58,44.0834,-5.5258,16.3163,0.013185,0.100947,00111100,9,17,11.5
62965,60639,2010/05/31 01:01:32,44.0851,-5.5222,16.3163,0.079126,0.052017,00111100,8,14,11.5
62965,60639,2010/05/31 02:00:14,44.0858,-5.5201,16.3163,0.047624,0.0221,00111100,4,12,11.5
62965,60639,2010/05/31 03:01:03,44.0852,-5.5178,16.3163,0.050344,-0.018284,00111100,7,11,11.5
62965,60639,2010/05/31 04:00:36,44.0837,-5.5176,16.3163,0.004471,-0.046681,00111100,6,11,11.5
62965,60639,2010/05/31 05:00:16,44.0824,-5.5200,16.3964,-0.053547,-0.040378,00111100,5,7,11.5
62965,60639,2010/05/31 06:00:37,44.0808,-5.5245,16.3964,-0.099267,-0.049133,00111100,7,7,11.5
62965,60639,2010/05/31 07:00:15,44.0805,-5.5299,16.3964,-0.120554,-0.009323,00111100,6,7,11.5
62965,60639,2010/05/31 08:00:39,44.0815,-5.5364,16.3964,-0.143268,0.030683,00111100,9,7,11.5
62965,60639,2010/05/31 09:00:27,44.0842,-5.5439,16.3964,-0.166963,0.083675,00111100,11,6,11.5
62965,60639,2010/05/31 10:00:38,44.0877,-5.5510,16.4764,-0.157043,0.107777,00111100,9,9,11.5
62965,60639,2010/05/31 11:00:16,44.0925,-5.5563,16.5565,-0.118303,0.149172,00111100,6,7,11.5
62965,60639,2010/05/31 12:00:39,44.0950,-5.5590,16.5565,-0.059515,0.076728,00111100,7,7,11.5
62965,60639,2010/05/31 13:00:15,44.0963,-5.5593,16.6365,-0.006699,0.040423,00111100,7,7,11.5
62965,60639,2010/05/31 14:00:22,44.0973,-5.5593,16.7166,0,0.030828,00111100,6,6,11.5
62965,60639,2010/05/31 15:01:03,44.0968,-5.5596,16.7166,-0.00658,-0.01527,00111100,4,7,11.5
62965,60639,2010/05/31 16:00:21,44.0958,-5.5606,16.7166,-0.022444,-0.031252,00111100,5,7,11.5
62965,60639,2010/05/31 17:00:16,44.0943,-5.5632,16.7166,-0.057756,-0.046396,00111100,7,7,11.5
62965,60639,2010/05/31 18:00:39,44.0931,-5.5674,16.7166,-0.092579,-0.03683,00111100,4,4,11.5
62965,60639,2010/05/31 19:00:15,44.0927,-5.5737,16.7166,-0.140696,-0.012438,00111100,4,3,11.5
62965,60639,2010/05/31 20:00:15,44.0944,-5.5817,16.7166,-0.177468,0.052509,00111100,3,3,11.5
62965,60639,2010/05/31 21:00:38,44.0975,-5.5900,16.6365,-0.182947,0.095143,00111100,5,3,11.5
62965,60639,2010/05/31 22:00:15,44.1014,-5.5953,16.6365,-0.118317,0.121236,00111100,3,3,11.5
62965,60639,2010/05/31 23:00:14,44.1044,-5.5967,16.6365,-0.031061,0.092688,00111100,7,1,11.5
62965,60639,2010/06/01 00:00:39,44.1071,-5.5960,16.6365,0.015418,0.082821,00111100,6,4,11.5
62965,60639,2010/06/01 01:00:16,44.1079,-5.5960,16.5565,0,0.024869,00111100,9,4,11.5
62965,60639,2010/06/01 02:00:15,44.1074,-5.5969,16.5565,-0.019966,-0.015448,00111100,8,3,11.5
62965,60639,2010/06/01 03:00:39,44.1058,-5.5992,16.5565,-0.050673,-0.049093,00111100,5,3,11.5
62965,60639,2010/06/01 04:00:18,44.1042,-5.6028,16.5565,-0.080314,-0.04971,00111100,6,3,11.5
62965,60639,2010/06/01 05:00:34,44.1025,-5.6067,16.4764,-0.086119,-0.052276,00111100,9,1,11.5
62965,60639,2010/06/01 06:00:12,44.1019,-5.6128,16.4764,-0.136132,-0.018646,00111100,8,4,11.5
62965,60639,2010/06/01 07:00:17,44.1025,-5.6205,16.5565,-0.170551,0.018507,00111100,13,3,11.5
62965,60639,2010/06/01 08:00:15,44.1038,-5.6285,16.5565,-0.177538,0.040176,00111100,6,4,11.5
62965,60639,2010/06/01 09:00:37,44.1053,-5.6342,16.6365,-0.125655,0.04605,00111100,5,9,11.5
62965,60639,2010/06/01 10:00:27,44.1075,-5.6393,16.7166,-0.113426,0.068142,00111100,5,4,11.5
62965,60639,2010/06/01 11:00:27,44.1097,-5.6424,16.8767,-0.068751,0.067952,00111100,6,6,11.5
62965,60639,2010/06/01 12:00:39,44.1122,-5.6431,16.9567,-0.015472,0.076962,00111100,7,7,11.5
62965,60639,2010/06/01 13:00:21,44.1134,-5.6425,16.8767,0.013373,0.037251,00111100,11,7,11.5
62965,60639,2010/06/01 14:00:20,44.1130,-5.6422,16.9567,0.006655,-0.012358,00111100,7,7,11.5
62965,60639,2010/06/01 15:00:39,44.1112,-5.6422,17.1969,0,-0.055306,00111100,6,4,11.5
62965,60639,2010/06/01 16:00:16,44.1086,-5.6440,17.5171,-0.040176,-0.080824,00111100,6,4,11.5
62965,60639,2010/06/01 17:00:15,44.1067,-5.6487,17.5971,-0.104267,-0.058703,00111100,6,4,11.5
62965,60639,2010/06/01 18:00:39,44.1049,-5.6553,17.5171,-0.145412,-0.055229,00111100,4,4,11.5
62965,60639,2010/06/01 19:00:12,44.1039,-5.6637,17.357,-0.187715,-0.031121,00111100,4,3,11.5
62965,60639,2010/06/01 20:00:15,44.1046,-5.6718,17.1969,-0.179504,0.021603,00111100,6,4,11.5
62965,60639,2010/06/01 21:01:28,44.1062,-5.6784,17.1168,-0.143473,0.048438,00111100,4,4,11.5
62965,60639,2010/06/01 22:00:11,44.1081,-5.6811,17.1168,-0.061191,0.059969,00111100,5,3,11.5
62965,60639,2010/06/01 23:00:11,44.1098,-5.6836,17.1168,-0.055444,0.052509,00111100,1,4,11.5
62965,60639,2010/06/02 00:00:39,44.1103,-5.6855,17.0368,-0.041812,0.015325,00111100,5,4,11.5
62965,60639,2010/06/02 01:00:15,44.1100,-5.6867,17.0368,-0.026791,-0.009328,00111100,6,6,11.5
62965,60639,2010/06/02 02:00:15,44.1093,-5.6903,17.0368,-0.079839,-0.021621,00111100,6,6,11.5
62965,60639,2010/06/02 03:01:07,44.1082,-5.6946,17.0368,-0.094007,-0.033492,00111100,1,6,11.5
62965,60639,2010/06/02 04:00:14,44.1070,-5.6987,16.8767,-0.09229,-0.037619,00111100,8,9,11.5
62965,60639,2010/06/02 05:00:35,44.1058,-5.7047,16.7966,-0.132301,-0.03685,00111100,9,6,11.5
62965,60639,2010/06/02 06:00:15,44.1050,-5.7101,16.7166,-0.120436,-0.024848,00111100,5,11,11.5
62965,60639,2010/06/02 07:00:21,44.1046,-5.7166,16.7166,-0.143926,-0.012334,00111100,6,12,11.5
62965,60639,2010/06/02 08:00:38,44.1049,-5.7231,16.7166,-0.143488,0.009223,00111100,1,11,11.5
62965,60639,2010/06/02 09:00:21,44.1057,-5.7283,16.7166,-0.115879,0.024827,00111100,9,12,11.5
62965,60639,2010/06/02 10:00:21,44.1079,-5.7318,16.7166,-0.077625,0.067952,00111100,7,11,11.5
62965,60639,2010/06/02 11:00:39,44.1088,-5.7356,16.7166,-0.083857,0.02766,00111100,8,12,11.5
62965,60639,2010/06/02 12:00:15,44.1087,-5.7395,16.8767,-0.087074,-0.003109,00111100,10,14,11.5
62965,60639,2010/06/02 13:00:27,44.1081,-5.7441,16.8767,-0.10168,-0.018471,00111100,5,14,11.5
62965,60639,2010/06/02 14:00:39,44.1071,-5.7495,16.9567,-0.119365,-0.030785,00111100,5,11,11.5
62965,60639,2010/06/02 15:00:16,44.1052,-5.7554,16.9567,-0.131696,-0.059064,00111100,5,12,11.5
62965,60639,2010/06/02 16:00:12,44.1042,-5.7616,17.1168,-0.137665,-0.030922,00111100,7,14,11.5
62965,60639,2010/06/02 17:00:24,44.1039,-5.7671,17.0368,-0.121582,-0.009235,00111100,4,9,11.5
62965,60639,2010/06/02 18:00:35,44.1028,-5.7728,17.0368,-0.12604,-0.033873,00111100,4,11,11.5
62965,60639,2010/06/02 19:00:53,44.1031,-5.7800,16.9567,-0.158902,0.00922,00111100,3,9,11.5
62965,60639,2010/06/02 20:00:25,44.1037,-5.7854,16.9567,-0.12071,0.018678,00111100,3,14,11.5
62965,60639,2010/06/02 21:01:38,44.1040,-5.7899,16.8767,-0.097825,0.009082,00111100,5,14,11.5
62965,60639,2010/06/02 22:00:10,44.1042,-5.7940,16.8767,-0.093215,0.006332,00111100,5,14,11.5
62965,60639,2010/06/02 23:01:39,44.1042,-5.7985,16.8767,-0.0974,0,00111100,3,11,11.5
62965,60639,2010/06/03 00:00:15,44.1040,-5.8011,16.8767,-0.059045,-0.006325,00111100,1,14,11.5
62965,60639,2010/06/03 01:00:27,44.1039,-5.8046,16.7966,-0.077371,-0.003078,00111100,3,12,11.5
62965,60639,2010/06/03 02:00:26,44.1025,-5.8090,16.7166,-0.097619,-0.043254,00111100,6,15,11.5
62965,60639,2010/06/03 03:01:40,44.1009,-5.8154,16.7166,-0.139096,-0.048425,00111100,3,15,11.5
62965,60639,2010/06/03 04:01:33,44.0994,-5.8224,16.6365,-0.15557,-0.046421,00111100,5,12,11.5
62965,60639,2010/06/03 05:01:07,44.0990,-5.8288,16.6365,-0.142994,-0.012445,00111100,8,12,11.5
62965,60639,2010/06/03 06:00:11,44.0994,-5.8342,16.6365,-0.121672,0.01255,00111100,5,15,11.5
62965,60639,2010/06/03 07:00:18,44.1003,-5.8382,16.7166,-0.088552,0.027745,00111100,4,14,11.5
62965,60639,2010/06/03 08:01:27,44.1009,-5.8423,16.7166,-0.089231,0.018184,00111100,7,14,11.5
62965,60639,2010/06/03 09:00:15,44.1009,-5.8456,16.7166,-0.07469,0,00111100,4,14,11.5
62965,60639,2010/06/03 10:00:21,44.1001,-5.8486,16.7966,-0.066432,-0.024669,00111100,5,11,11.5
62965,60639,2010/06/03 11:01:09,44.0993,-5.8516,16.8767,-0.065668,-0.024385,00111100,7,12,11.5
62965,60639,2010/06/03 12:00:39,44.0970,-5.8560,16.9567,-0.09842,-0.071638,00111100,3,9,11.5
62965,60639,2010/06/03 13:00:15,44.0951,-5.8626,17.0368,-0.147388,-0.05908,00111100,6,9,11.5
62965,60639,2010/06/03 14:01:08,44.0939,-5.8697,17.0368,-0.155215,-0.036527,00111100,6,9,11.5
62965,60639,2010/06/03 15:00:11,44.0940,-5.8759,17.0368,-0.13975,0.003138,00111100,6,14,11.5
62965,60639,2010/06/03 16:00:15,44.0945,-5.8823,17.0368,-0.141815,0.015427,00111100,8,14,11.5
62965,60639,2010/06/03 17:00:21,44.0947,-5.8882,17.1168,-0.130663,0.006167,00111100,4,9,11.5
62965,60639,2010/06/03 18:00:39,44.0950,-5.8937,17.1969,-0.1214,0.00922,00111100,7,6,11.5
62965,60639,2010/06/03 19:00:21,44.0961,-5.8973,17.1969,-0.080259,0.034147,00111100,3,4,11.5
62965,60639,2010/06/03 20:00:24,44.0981,-5.8999,17.1969,-0.057626,0.061724,00111100,1,6,11.5
62965,60639,2010/06/03 21:01:11,44.0983,-5.9014,17.1168,-0.032844,0.006098,00111100,4,6,11.5
62965,60639,2010/06/03 22:00:34,44.0969,-5.9032,17.0368,-0.040342,-0.043692,00111100,6,3,11.5
62965,60639,2010/06/03 23:00:15,44.0954,-5.9066,17.0368,-0.075821,-0.046577,00111100,6,3,11.5
62965,60639,2010/06/04 00:00:15,44.0934,-5.9102,17.0368,-0.07986,-0.061775,00111100,6,3,11.5
62965,60639,2010/06/04 01:00:38,44.0912,-5.9146,17.0368,-0.09699,-0.067521,00111100,5,0,11.5
62965,60639,2010/06/04 02:00:15,44.0889,-5.9183,17.1168,-0.082612,-0.071498,00111100,6,1,11.5
62965,60639,2010/06/04 03:00:25,44.0863,-5.9235,17.0368,-0.115046,-0.080085,00111100,7,9,11.5
62965,60639,2010/06/04 04:01:03,44.0848,-5.9286,17.0368,-0.111969,-0.045847,00111100,9,9,11.5
62965,60639,2010/06/04 05:00:15,44.0845,-5.9337,16.9567,-0.114682,-0.009391,00111100,10,7,11.5
62965,60639,2010/06/04 06:00:41,44.0844,-5.9391,16.8767,-0.11895,-0.003067,00111100,4,9,11.5
62965,60639,2010/06/04 07:00:21,44.0850,-5.9428,16.8767,-0.08255,0.018636,00111100,7,11,11.5
62965,60639,2010/06/04 08:01:07,44.0866,-5.9460,16.8767,-0.070101,0.048796,00111100,6,9,11.5
62965,60639,2010/06/04 09:00:15,44.0871,-5.9475,16.8767,-0.033767,0.01567,00111100,8,11,11.5
62965,60639,2010/06/04 10:00:15,44.0869,-5.9492,16.9567,-0.037716,-0.006177,00111100,7,11,11.5
62965,60639,2010/06/04 11:00:39,44.0865,-5.9521,17.0368,-0.063914,-0.012273,00111100,6,3,11.5
62965,60639,2010/06/04 12:00:15,44.0858,-5.9560,17.1168,-0.087107,-0.021766,00111100,7,4,11.5
62965,60639,2010/06/04 13:00:12,44.0854,-5.9586,17.1168,-0.057733,-0.012365,00111100,8,1,11.5
62965,60639,2010/06/04 14:00:39,44.0834,-5.9607,17.1969,-0.046246,-0.061315,00111100,9,1,11.5
62965,60639,2010/06/04 15:00:11,44.0809,-5.9630,17.437,-0.051432,-0.077824,00111100,6,0,11.5
62965,60639,2010/06/04 16:00:15,44.0783,-5.9669,17.5971,-0.08644,-0.080218,00111100,7,1,11.5
62965,60639,2010/06/04 17:00:16,44.0774,-5.9715,17.6772,-0.102043,-0.027791,00111100,6,0,11.5
62965,60639,2010/06/04 18:00:39,44.0771,-5.9754,17.6772,-0.08599,-0.009207,00111100,6,0,11.5
62965,60639,2010/06/04 19:00:16,44.0764,-5.9795,17.5171,-0.091563,-0.02176,00111100,3,1,11.5
62965,60639,2010/06/04 20:00:10,44.0756,-5.9850,17.437,-0.122249,-0.024751,00111100,7,0,11.5
62965,60639,2010/06/04 21:00:34,44.0764,-5.9903,17.357,-0.116829,0.024546,00111100,8,0,11.5
62965,60639,2010/06/04 22:00:39,44.0764,-5.9949,17.357,-0.101932,0,00111100,7,1,11.5
62965,60639,2010/06/04 23:00:15,44.0768,-5.9994,17.2769,-0.100525,0.012438,00111100,3,0,11.5
62965,60639,2010/06/05 00:00:15,44.0774,-6.0042,17.2769,-0.106511,0.018532,00111100,7,0,11.5
62965,60639,2010/06/05 01:00:36,44.0774,-6.0086,17.1969,-0.097068,0,00111100,8,1,11.5
62965,60639,2010/06/05 02:00:15,44.0775,-6.0125,17.1969,-0.087047,0.003107,00111100,6,0,11.5
62965,60639,2010/06/05 03:00:15,44.0772,-6.0149,17.1969,-0.053255,-0.009266,00111100,7,0,11.5
62965,60639,2010/06/05 04:00:39,44.0763,-6.0161,17.1969,-0.026451,-0.027615,00111100,7,3,11.5
62965,60639,2010/06/05 05:00:15,44.0753,-6.0185,17.1969,-0.053614,-0.031095,00111100,7,1,11.5
62965,60639,2010/06/05 06:00:24,44.0746,-6.0208,17.1969,-0.050911,-0.021567,00111100,6,3,11.5
62965,60639,2010/06/05 07:00:39,44.0735,-6.0239,17.1168,-0.068506,-0.033835,00111100,9,3,11.5
62965,60639,2010/06/05 08:00:15,44.0727,-6.0283,17.1168,-0.098297,-0.024876,00111100,7,7,11.5
62965,60639,2010/06/05 09:00:15,44.0722,-6.0335,17.1168,-0.115396,-0.015444,00111100,8,6,11.5
62965,60639,2010/06/05 10:00:15,44.0720,-6.0393,17.1168,-0.128711,-0.006177,00111100,8,4,11.5
62965,60639,2010/06/05 11:00:39,44.0715,-6.0458,17.1969,-0.143291,-0.015341,00111100,5,6,11.5
62965,60639,2010/06/05 12:00:19,44.0715,-6.0517,17.1969,-0.131663,0,00111100,5,4,11.5
62965,60639,2010/06/05 13:00:22,44.0721,-6.0571,17.1969,-0.119735,0.018517,00111100,5,6,11.5
62965,60639,2010/06/05 14:00:39,44.0728,-6.0617,17.2769,-0.101601,0.02152,00111100,5,6,11.5
62965,60639,2010/06/05 15:00:15,44.0727,-6.0647,17.357,-0.067021,-0.003109,00111100,6,6,11.5
62965,60639,2010/06/05 16:00:15,44.0729,-6.0670,17.437,-0.05104,0.006177,00111100,8,4,11.5
62965,60639,2010/06/05 17:00:39,44.0730,-6.0692,17.357,-0.048497,0.003068,00111100,5,4,11.5
62965,60639,2010/06/05 18:00:15,44.0720,-6.0720,17.357,-0.062553,-0.031095,00111100,4,3,11.5
62965,60639,2010/06/05 19:00:40,44.0710,-6.0759,17.2769,-0.085951,-0.030674,00111100,6,7,11.5
62965,60639,2010/06/05 20:00:15,44.0706,-6.0802,17.357,-0.096093,-0.012441,00111100,4,6,11.5
62965,60639,2010/06/05 21:00:43,44.0698,-6.0851,17.357,-0.107903,-0.024519,00111100,6,6,11.5
62965,60639,2010/06/05 22:01:39,44.0698,-6.0901,17.2769,-0.109263,0,00111100,5,11,11.5
62965,60639,2010/06/05 23:00:11,44.0693,-6.0941,17.1969,-0.090994,-0.015831,00111100,1,6,11.5
62965,60639,2010/06/06 00:00:14,44.0683,-6.0976,17.1969,-0.07761,-0.030862,00111100,6,6,11.5
62965,60639,2010/06/06 01:00:39,44.0675,-6.1027,17.1969,-0.112404,-0.02454,00111100,5,6,11.5
62965,60639,2010/06/06 02:00:16,44.0660,-6.1080,17.1168,-0.118382,-0.046629,00111100,5,4,11.5
62965,60639,2010/06/06 03:00:48,44.0645,-6.1138,17.1168,-0.127592,-0.045923,00111100,4,6,11.5
62965,60639,2010/06/06 04:00:40,44.0637,-6.1190,17.1168,-0.115669,-0.024765,00111100,6,6,11.5
62965,60639,2010/06/06 05:00:11,44.0632,-6.1241,17.1168,-0.114113,-0.015569,00111100,9,6,11.5
62965,60639,2010/06/06 06:00:11,44.0632,-6.1284,17.0368,-0.095438,0,00111100,7,9,11.5
62965,60639,2010/06/06 07:00:39,44.0634,-6.1328,17.1168,-0.096904,0.00613,00111100,9,6,11.5
62965,60639,2010/06/06 08:00:15,44.0636,-6.1367,17.1168,-0.087141,0.006219,00111100,6,9,11.5
62965,60639,2010/06/06 09:00:15,44.0633,-6.1409,17.1969,-0.093218,-0.009266,00111100,11,7,11.5
62965,60639,2010/06/06 10:00:15,44.0630,-6.1450,17.2769,-0.090999,-0.009266,00111100,6,11,11.5
62965,60639,2010/06/06 11:00:39,44.0629,-6.1480,17.437,-0.066144,-0.003068,00111100,5,4,11.5
62965,60639,2010/06/06 12:00:16,44.0626,-6.1508,17.5971,-0.062546,-0.009326,00111100,6,7,11.5
62965,60639,2010/06/06 13:00:21,44.0611,-6.1529,17.7572,-0.046546,-0.046267,00111100,6,4,11.5
62965,60639,2010/06/06 14:00:35,44.0590,-6.1569,17.9173,-0.08844,-0.064612,00111100,6,6,11.5
62965,60639,2010/06/06 15:00:11,44.0571,-6.1604,17.9974,-0.07821,-0.05908,00111100,7,4,11.5
62965,60639,2010/06/06 16:00:11,44.0547,-6.1648,18.0774,-0.09767,-0.07413,00111100,6,4,11.5
62965,60639,2010/06/06 17:00:39,44.0530,-6.1699,18.0774,-0.112338,-0.052103,00111100,4,6,11.5
62965,60639,2010/06/06 18:00:17,44.0513,-6.1754,18.0774,-0.122846,-0.052832,00111100,5,4,11.5
62965,60639,2010/06/06 19:00:39,44.0499,-6.1814,17.9173,-0.132389,-0.04298,00111100,7,4,11.5
62965,60639,2010/06/06 20:00:10,44.0498,-6.1874,17.8373,-0.134281,-0.003114,00111100,5,3,11.5
62965,60639,2010/06/06 21:00:16,44.0505,-6.1917,17.7572,-0.0953,0.021585,00111100,4,3,11.5
62965,60639,2010/06/06 22:00:39,44.0515,-6.1948,17.6772,-0.068382,0.030691,00111100,5,4,11.5
62965,60639,2010/06/06 23:00:15,44.0521,-6.1990,17.6772,-0.093862,0.018657,00111100,6,4,11.5
62965,60639,2010/06/07 00:00:16,44.0519,-6.2027,17.5971,-0.082114,-0.006176,00111100,3,4,11.5
62965,60639,2010/06/07 01:00:16,44.0514,-6.2069,17.5171,-0.093237,-0.015444,00111100,5,4,11.5
62965,60639,2010/06/07 02:00:38,44.0504,-6.2108,17.5171,-0.086052,-0.0307,00111100,10,3,11.5
62965,60639,2010/06/07 03:00:21,44.0500,-6.2155,17.437,-0.104834,-0.012414,00111100,9,4,11.5
62965,60639,2010/06/07 04:00:20,44.0497,-6.2199,17.437,-0.097707,-0.009269,00111100,5,1,11.5
62965,60639,2010/06/07 05:00:34,44.0492,-6.2240,17.437,-0.090668,-0.015384,00111100,8,3,11.5
62965,60639,2010/06/07 06:00:29,44.0483,-6.2271,17.437,-0.068917,-0.027837,00111100,8,4,11.5
62965,60639,2010/06/07 07:00:15,44.0467,-6.2297,17.437,-0.057947,-0.049613,00111100,8,1,11.5
62965,60639,2010/06/07 08:00:15,44.0456,-6.2331,17.437,-0.075484,-0.033976,00111100,8,4,11.5
62965,60639,2010/06/07 09:00:35,44.0451,-6.2371,17.5171,-0.088316,-0.015358,00111100,6,3,11.5
62965,60639,2010/06/07 10:00:15,44.0448,-6.2415,17.5971,-0.098233,-0.009318,00111100,5,4,11.5
62965,60639,2010/06/07 11:00:38,44.0449,-6.2463,17.5971,-0.105892,0.003069,00111100,6,4,11.5
62965,60639,2010/06/07 12:00:15,44.0448,-6.2486,17.7572,-0.051392,-0.003109,00111100,7,1,11.5
62965,60639,2010/06/07 13:00:14,44.0437,-6.2523,17.9974,-0.08217,-0.033986,00111100,4,3,11.5
62965,60639,2010/06/07 14:00:39,44.0416,-6.2573,17.9173,-0.110247,-0.064416,00111100,6,3,11.5
62965,60639,2010/06/07 15:00:11,44.0398,-6.2627,17.8373,-0.120838,-0.056033,00111100,7,3,11.5
62965,60639,2010/06/07 16:00:11,44.0380,-6.2683,17.8373,-0.124343,-0.055597,00111100,6,3,11.5
62965,60639,2010/06/07 17:00:56,44.0376,-6.2729,17.7572,-0.100879,-0.012202,00111100,8,11,11.5
62965,60639,2010/06/07 18:00:13,44.0367,-6.2773,17.7572,-0.098882,-0.028135,00111100,4,15,11.5
62965,60639,2010/06/07 19:00:17,44.0372,-6.2807,17.6772,-0.075412,0.015427,00111100,6,17,11.5
62965,60639,2010/06/07 20:01:03,44.0386,-6.2829,17.6772,-0.048233,0.042697,00111100,1,17,11.5
62965,60639,2010/06/07 21:00:21,44.0402,-6.2832,17.5971,-0.00674,0.050003,00111100,4,19,11.5
62965,60639,2010/06/07 22:00:57,44.0406,-6.2839,17.5971,-0.015389,0.012233,00111100,4,17,11.5
62965,60639,2010/06/07 23:01:27,44.0409,-6.2847,17.5171,-0.017616,0.00919,00111100,6,20,11.5
62965,60639,2010/06/08 00:00:15,44.0399,-6.2846,17.5171,0.002266,-0.031518,00111100,4,15,11.5
62965,60639,2010/06/08 01:01:06,44.0375,-6.2875,17.5171,-0.063492,-0.073094,00111100,3,15,11.5
62965,60639,2010/06/08 02:00:23,44.0338,-6.2907,17.437,-0.071916,-0.115665,00111100,1,15,11.5
62965,60639,2010/06/08 03:01:10,44.0307,-6.2938,17.437,-0.067953,-0.094517,00111100,1,17,11.5
62965,60639,2010/06/08 04:00:13,44.0277,-6.2966,17.437,-0.063182,-0.094153,00111100,4,17,11.5
62965,60639,2010/06/08 05:00:38,44.0257,-6.3024,17.437,-0.127921,-0.061349,00111100,9,15,11.5
62965,60639,2010/06/08 06:00:19,44.0238,-6.3080,17.437,-0.125032,-0.058998,00111100,6,20,11.5
62965,60639,2010/06/08 07:00:27,44.0224,-6.3138,17.357,-0.128532,-0.043147,00111100,6,22,11.5
62965,60639,2010/06/08 08:00:15,44.0209,-6.3198,17.437,-0.133709,-0.046486,00111100,8,19,11.5
62965,60639,2010/06/08 09:00:53,44.0215,-6.3242,17.357,-0.096706,0.018339,00111100,4,20,11.5
62965,60639,2010/06/08 10:00:15,44.0229,-6.3283,17.357,-0.092034,0.043704,00111100,7,15,11.5
62965,60639,2010/06/08 11:00:14,44.0245,-6.3311,17.437,-0.062204,0.049434,00111100,9,15,11.5
62965,60639,2010/06/08 12:00:38,44.0252,-6.3335,17.437,-0.052949,0.021478,00111100,6,14,11.5
62965,60639,2010/06/08 13:01:33,44.0261,-6.3346,17.437,-0.024062,0.02738,00111100,7,12,11.5
62965,60639,2010/06/08 14:00:15,44.0252,-6.3364,17.357,-0.040862,-0.028414,00111100,4,15,11.5
62965,60639,2010/06/08 15:00:15,44.0239,-6.3371,17.357,-0.015547,-0.040154,00111100,6,15,11.5
62965,60639,2010/06/08 16:00:15,44.0215,-6.3385,17.357,-0.031094,-0.07413,00111100,5,12,11.5
62965,60639,2010/06/08 17:01:23,44.0181,-6.3408,17.357,-0.050139,-0.103071,00111100,5,12,11.5
62965,60639,2010/06/08 18:00:22,44.0147,-6.3430,17.357,-0.04971,-0.106828,00111100,5,12,11.5
62965,60639,2010/06/08 19:00:15,44.0121,-6.3463,17.357,-0.073448,-0.080464,00111100,5,15,11.5
62965,60639,2010/06/08 20:01:39,44.0095,-6.3488,17.357,-0.05427,-0.078476,00111100,5,15,11.5
62965,60639,2010/06/08 21:00:14,44.0068,-6.3513,17.357,-0.056882,-0.085413,00111100,6,11,11.5
62965,60639,2010/06/08 22:00:27,44.0045,-6.3546,17.357,-0.073051,-0.070786,00111100,3,9,11.5
62965,60639,2010/06/08 23:00:13,44.0030,-6.3597,17.357,-0.11375,-0.046512,00111100,1,9,11.5
62965,60639,2010/06/09 00:00:39,44.0018,-6.3637,17.357,-0.088234,-0.036799,00111100,4,12,11.5
62965,60639,2010/06/09 01:00:39,44.0016,-6.3683,17.357,-0.102203,-0.006177,00111100,3,14,11.5
62965,60639,2010/06/09 02:00:11,44.0015,-6.3722,17.357,-0.087329,-0.003113,00111100,3,12,11.5
62965,60639,2010/06/09 03:01:10,44.0018,-6.3750,17.357,-0.061207,0.009117,00111100,1,12,11.5
62965,60639,2010/06/09 04:00:15,43.9062,-6.3583,17.357,0.377099,-2.99866,00144100,1,11,11.5
62965,60639,2010/06/09 05:00:15,43.9443,-6.4181,17.357,-1.33034,1.17681,00144100,4,15,11.5
62965,60639,2010/06/09 06:00:16,43.9562,-6.3594,17.2769,1.30496,0.367459,00144100,1,11,11.5
62965,60639,2010/06/09 07:01:04,43.9989,-6.3799,17.2769,-0.449658,1.30154,00144100,1,11,11.5
62965,60639,2010/06/09 08:00:17,43.9967,-6.3821,17.2769,-0.049529,-0.068851,00111100,1,19,11.5
62965,60639,2010/06/09 09:00:15,43.9946,-6.3835,17.2769,-0.031126,-0.0649,00111100,1,19,11.5
62965,60639,2010/06/09 10:00:18,43.9926,-6.3852,17.2769,-0.037744,-0.061724,00111100,3,14,11.5
62965,60639,2010/06/09 11:01:39,43.9896,-6.3885,17.357,-0.071719,-0.090623,00111100,3,15,11.5
62965,60639,2010/06/09 12:01:08,43.9872,-6.3929,17.357,-0.09863,-0.074774,00111100,1,15,11.5
62965,60639,2010/06/09 13:00:33,43.9853,-6.3961,17.357,-0.071814,-0.059262,00111100,4,17,11.5
62965,60639,2010/06/09 14:02:11,43.9839,-6.4002,17.357,-0.088705,-0.042097,00111100,1,17,11.5
62965,60639,2010/06/09 15:00:17,43.9825,-6.4040,17.437,-0.087216,-0.044657,00111100,1,14,11.5
62965,60639,2010/06/09 16:00:21,43.9812,-6.4076,17.357,-0.079923,-0.040109,00111100,4,20,11.5
62965,60639,2010/06/09 17:00:59,43.9808,-6.4104,17.357,-0.061582,-0.012226,00111100,3,20,11.5
62965,60639,2010/06/09 18:00:12,43.9799,-6.4126,17.357,-0.049544,-0.028166,00111100,3,15,11.5
62965,60639,2010/06/09 19:00:21,43.9787,-6.4136,17.2769,-0.022171,-0.036973,00111100,3,19,11.5
62965,60639,2010/06/09 20:01:33,43.9769,-6.4154,17.2769,-0.039224,-0.054507,00111100,5,14,11.5
62965,60639,2010/06/09 21:00:15,43.9743,-6.4168,17.2769,-0.031808,-0.082086,00111100,3,15,11.5
62965,60639,2010/06/09 22:01:03,43.9719,-6.4188,17.2769,-0.043872,-0.073155,00111100,1,14,11.5
62965,60639,2010/06/09 23:00:15,43.9703,-6.4215,17.1969,-0.06083,-0.050088,00111100,1,15,11.5
62965,60639,2010/06/10 00:00:16,43.9699,-6.4234,17.1969,-0.042225,-0.012352,00111100,3,19,11.5
62965,60639,2010/06/10 01:00:22,43.9683,-6.4254,17.1969,-0.044386,-0.049338,00111100,1,23,11.5
62965,60639,2010/06/10 02:01:23,43.9667,-6.4277,17.1969,-0.050279,-0.048597,00111100,1,17,11.4
62965,60639,2010/06/10 03:01:23,43.9667,-6.4277,17.1969,0,0,00111100,1,17,11.4
62965,60639,2010/06/10 03:02:40,43.9648,-6.4295,17.1969,-1.8709,-2.74377,00111100,1,23,11.5
62965,60639,2010/06/10 04:00:15,43.9636,-6.4306,17.1969,-0.025482,-0.038621,00111100,1,20,11.5
62965,60639,2010/06/10 05:00:15,43.9615,-6.4303,17.2769,0.00667,-0.064864,00111100,3,23,11.5
62965,60639,2010/06/10 06:00:21,43.9584,-6.4297,17.2769,0.013318,-0.095592,00111100,1,20,11.5
62965,60639,2010/06/10 07:03:08,43.9056,-6.7779,17.2769,-7.402,-1.55856,00144100,1,23,11.5
62965,60639,2010/06/10 08:00:14,43.9505,-6.4262,17.2769,8.2211,1.45728,00111100,1,23,11.5
62965,60639,2010/06/10 09:00:12,43.9460,-6.4258,17.2769,0.0089,-0.139071,00111100,4,20,11.5